When you browse on this site, cookies collect data to enhance your experience and personalize the content and advertising you see.
Visit our Privacy Policy to learn more. By continuing to use the site, you agree to this use of cookies and data.
  • în România
  • Lista ţărilor
  • Pe 7 zile
  • Temperatura apei
  • Hartă satelitară
  • Meteo pe hartă
  • Widget-uri
  • user-avatar
    Intrare

    Meteo pe oră la Rostock

    Astăzi, 21 Martie, Joi

    Timp Temperatura Precipitaţii Vânt Presiune Umiditate
    00:00 +6°C° 0 mm 4 m/s 772 mmHg 96%
    01:00 +5°C° 0 mm 3 m/s 773 mmHg 97%
    02:00 +5°C° 0 mm 4 m/s 773 mmHg 97%
    03:00 +6°C° 0 mm 4 m/s 772 mmHg 97%
    04:00 +6°C° 0 mm 4 m/s 772 mmHg 97%
    05:00 +6°C° 0 mm 5 m/s 772 mmHg 96%
    06:00 +6°C° 0 mm 5 m/s 772 mmHg 95%
    07:00 +6°C° 0 mm 5 m/s 772 mmHg 95%
    08:00 +7°C° 0 mm 6 m/s 772 mmHg 91%
    09:00 +8°C° 0 mm 6 m/s 772 mmHg 88%
    10:00 +9°C° 0 mm 6 m/s 772 mmHg 84%
    11:00 +10°C° 0 mm 6 m/s 772 mmHg 83%
    12:00 +10°C° 0 mm 6 m/s 772 mmHg 82%
    13:00 +10°C° 0 mm 6 m/s 772 mmHg 80%
    14:00 +11°C° 0 mm 6 m/s 772 mmHg 80%
    15:00 +12°C° 0 mm 5 m/s 772 mmHg 80%
    16:00 +12°C° 0 mm 5 m/s 772 mmHg 79%
    17:00 +12°C° 0 mm 5 m/s 772 mmHg 83%
    18:00 +10°C° 0 mm 5 m/s 772 mmHg 87%
    19:00 +9°C° 0 mm 5 m/s 772 mmHg 91%
    20:00 +8°C° 0 mm 4 m/s 772 mmHg 92%
    21:00 +7°C° 0 mm 4 m/s 772 mmHg 94%
    22:00 +7°C° 0 mm 4 m/s 773 mmHg 95%
    23:00 +6°C° 0 mm 4 m/s 773 mmHg 96%

    Mâine, 22 Martie, Vineri

    Timp Temperatura Precipitaţii Vânt Presiune Umiditate
    00:00 +7°C° 0 mm 3 m/s 773 mmHg 96%
    01:00 +5°C° 0 mm 3 m/s 773 mmHg 97%
    02:00 +6°C° 0 mm 2 m/s 773 mmHg 97%
    03:00 +6°C° 0 mm 2 m/s 773 mmHg 97%
    04:00 +6°C° 0 mm 2 m/s 773 mmHg 97%
    05:00 +7°C° 0 mm 1 m/s 773 mmHg 97%
    06:00 +7°C° 0 mm 1 m/s 773 mmHg 97%
    07:00 +6°C° 0 mm 0 m/s 774 mmHg 97%
    08:00 +9°C° 0 mm 1 m/s 774 mmHg 91%
    09:00 +10°C° 0 mm 1 m/s 773 mmHg 86%
    10:00 +12°C° 0 mm 2 m/s 773 mmHg 81%
    11:00 +14°C° 0 mm 2 m/s 773 mmHg 76%
    12:00 +15°C° 0 mm 2 m/s 773 mmHg 71%
    13:00 +17°C° 0 mm 2 m/s 773 mmHg 66%
    14:00 +17°C° 0 mm 2 m/s 772 mmHg 66%
    15:00 +17°C° 0 mm 2 m/s 771 mmHg 66%
    16:00 +18°C° 0 mm 2 m/s 771 mmHg 66%
    17:00 +16°C° 0 mm 2 m/s 771 mmHg 72%
    18:00 +14°C° 0 mm 3 m/s 770 mmHg 79%
    19:00 +12°C° 0 mm 3 m/s 770 mmHg 86%
    20:00 +12°C° 0 mm 3 m/s 770 mmHg 87%
    21:00 +11°C° 0 mm 4 m/s 769 mmHg 88%
    22:00 +11°C° 0 mm 4 m/s 769 mmHg 90%
    23:00 +10°C° 0 mm 4 m/s 769 mmHg 90%

    Poimâine, 23 Martie, Sâmbătă

    Timp Temperatura Precipitaţii Vânt Presiune Umiditate
    00:00 +10°C° 0 mm 4 m/s 769 mmHg 91%
    01:00 +10°C° 0 mm 4 m/s 768 mmHg 91%
    02:00 +10°C° 0 mm 4 m/s 768 mmHg 92%
    03:00 +8°C° 0 mm 4 m/s 768 mmHg 93%
    04:00 +9°C° 0 mm 3 m/s 767 mmHg 93%
    05:00 +9°C° 0 mm 3 m/s 767 mmHg 93%
    06:00 +8°C° 0 mm 3 m/s 767 mmHg 94%
    07:00 +8°C° 0 mm 3 m/s 767 mmHg 94%
    08:00 +9°C° 0 mm 3 m/s 768 mmHg 89%
    09:00 +10°C° 0 mm 4 m/s 768 mmHg 84%
    10:00 +11°C° 0 mm 4 m/s 768 mmHg 79%
    11:00 +11°C° 0 mm 4 m/s 769 mmHg 79%
    12:00 +10°C° 0 mm 5 m/s 769 mmHg 78%
    13:00 +10°C° 0 mm 5 m/s 769 mmHg 78%
    14:00 +10°C° 0 mm 5 m/s 769 mmHg 76%
    15:00 +9°C° 0 mm 5 m/s 770 mmHg 74%
    16:00 +9°C° 0 mm 5 m/s 770 mmHg 72%
    17:00 +8°C° 0 mm 4 m/s 770 mmHg 72%
    18:00 +7°C° 0 mm 3 m/s 771 mmHg 73%
    19:00 +5°C° 0 mm 3 m/s 771 mmHg 73%
    20:00 +5°C° 0 mm 3 m/s 772 mmHg 73%
    21:00 +4°C° 0 mm 3 m/s 772 mmHg 73%
    22:00 +4°C° 0 mm 3 m/s 773 mmHg 73%
    23:00 +3°C° 0 mm 3 m/s 773 mmHg 74%

    24 Martie, Duminică

    Timp Temperatura Precipitaţii Vânt Presiune Umiditate
    00:00 +4°C° 0 mm 2 m/s 773 mmHg 75%
    01:00 +3°C° 0 mm 2 m/s 773 mmHg 75%
    02:00 +3°C° 0 mm 2 m/s 773 mmHg 77%
    03:00 +3°C° 0 mm 2 m/s 772 mmHg 78%
    04:00 +3°C° 0 mm 2 m/s 772 mmHg 79%
    05:00 +4°C° 0 mm 1 m/s 772 mmHg 78%
    06:00 +4°C° 0 mm 1 m/s 772 mmHg 78%
    07:00 +4°C° 0 mm 0 m/s 772 mmHg 78%
    08:00 +4°C° 0 mm 0 m/s 772 mmHg 72%
    09:00 +5°C° 0 mm 0 m/s 772 mmHg 67%
    10:00 +6°C° 0 mm 0 m/s 771 mmHg 62%
    11:00 +7°C° 0 mm 0 m/s 771 mmHg 59%
    12:00 +9°C° 0 mm 1 m/s 771 mmHg 56%
    13:00 +9°C° 0 mm 1 m/s 770 mmHg 52%
    14:00 +9°C° 0 mm 1 m/s 770 mmHg 55%
    15:00 +8°C° 0 mm 1 m/s 769 mmHg 57%
    16:00 +7°C° 0 mm 2 m/s 768 mmHg 59%
    17:00 +7°C° 0 mm 1 m/s 768 mmHg 63%
    18:00 +6°C° 0 mm 1 m/s 768 mmHg 66%
    19:00 +5°C° 0 mm 1 m/s 768 mmHg 70%
    20:00 +4°C° 0 mm 1 m/s 767 mmHg 70%
    21:00 +3°C° 0 mm 2 m/s 767 mmHg 70%
    22:00 +3°C° 0 mm 2 m/s 767 mmHg 71%
    23:00 +1°C° 0 mm 3 m/s 767 mmHg 75%

    25 Martie, Luni

    Timp Temperatura Precipitaţii Vânt Presiune Umiditate
    00:00 0°C° 0 mm 4 m/s 766 mmHg 79%
    01:00 0°C° 0 mm 4 m/s 766 mmHg 82%
    02:00 0°C° 0 mm 5 m/s 765 mmHg 83%
    03:00 -1°C° 0 mm 6 m/s 764 mmHg 84%
    04:00 -1°C° 0 mm 7 m/s 764 mmHg 84%
    05:00 0°C° 0 mm 8 m/s 763 mmHg 84%
    06:00 0°C° 0 mm 9 m/s 762 mmHg 85%
    07:00 +1°C° 0 mm 10 m/s 762 mmHg 85%
    08:00 +2°C° 0.6 mm 10 m/s 762 mmHg 79%
    09:00 +2°C° 0.6 mm 10 m/s 761 mmHg 73%
    10:00 +3°C° 0.6 mm 11 m/s 761 mmHg 67%
    11:00 +3°C° 0.1 mm 11 m/s 761 mmHg 63%
    12:00 +4°C° 0.1 mm 12 m/s 761 mmHg 59%
    13:00 +4°C° 0.1 mm 12 m/s 761 mmHg 54%
    14:00 +4°C° 0 mm 12 m/s 761 mmHg 56%
    15:00 +4°C° 0 mm 13 m/s 761 mmHg 58%
    16:00 +3°C° 0 mm 13 m/s 761 mmHg 59%
    17:00 +3°C° 0.1 mm 12 m/s 761 mmHg 60%
    18:00 +2°C° 0.1 mm 12 m/s 761 mmHg 61%
    19:00 0°C° 0.1 mm 12 m/s 761 mmHg 61%
    20:00 0°C° 0.1 mm 12 m/s 761 mmHg 61%
    21:00 0°C° 0.1 mm 12 m/s 761 mmHg 60%
    22:00 -1°C° 0.1 mm 11 m/s 761 mmHg 60%
    23:00 -1°C° 0 mm 11 m/s 762 mmHg 60%

    26 Martie, Marţi

    Timp Temperatura Precipitaţii Vânt Presiune Umiditate
    00:00 -1°C° 0 mm 11 m/s 762 mmHg 60%
    01:00 -2°C° 0 mm 11 m/s 762 mmHg 60%
    02:00 -2°C° 0 mm 11 m/s 762 mmHg 59%
    03:00 -2°C° 0 mm 10 m/s 763 mmHg 58%
    04:00 -2°C° 0 mm 10 m/s 763 mmHg 57%
    05:00 0°C° 0 mm 10 m/s 763 mmHg 58%
    06:00 0°C° 0 mm 10 m/s 764 mmHg 59%
    07:00 0°C° 0 mm 10 m/s 764 mmHg 60%
    08:00 +1°C° 0 mm 10 m/s 765 mmHg 60%
    09:00 +2°C° 0 mm 10 m/s 766 mmHg 60%
    10:00 +3°C° 0 mm 9 m/s 766 mmHg 60%
    11:00 +5°C° 0 mm 9 m/s 767 mmHg 60%
    12:00 +5°C° 0 mm 8 m/s 767 mmHg 59%
    13:00 +6°C° 0 mm 8 m/s 768 mmHg 59%
    14:00 +5°C° 0 mm 8 m/s 768 mmHg 59%
    15:00 +5°C° 0 mm 7 m/s 769 mmHg 59%
    16:00 +5°C° 0 mm 7 m/s 769 mmHg 60%
    17:00 +4°C° 0 mm 6 m/s 769 mmHg 63%
    18:00 +3°C° 0 mm 5 m/s 770 mmHg 67%
    19:00 +1°C° 0 mm 4 m/s 770 mmHg 70%
    20:00 +1°C° 0 mm 4 m/s 770 mmHg 72%
    21:00 +2°C° 0 mm 3 m/s 770 mmHg 75%
    22:00 +1°C° 0 mm 3 m/s 771 mmHg 77%
    23:00 +1°C° 0 mm 3 m/s 771 mmHg 79%
    Arată mai mult